Simultaneous Nadir Overpasses (SNOs) Predictions

Prediction of SNOs between NOAA-15 and METOP-C Satellite Orbit:

Table of predicted SNOs for the next 14.0 days since TLE Epoch: 12/21/2024
Index Date (NOAA-15) Time (NOAA-15) Lat,Lon (NOAA-15) SZA (NOAA-15 ) Date (METOP-C) Time (METOP-C) Lat,Lon (METOP-C) SZA (METOP-C ) Distance(km) Time Diff (sec)
1 12/31/2024 22:00:38 -81.03, 67.43 74.32 12/31/2024 21:59:24 -81.03, 67.51 74.34 1.41 74
2 12/31/2024 22:51:09 81.03,-125.29 105.68 12/31/2024 22:50:05 81.02,-125.29 105.64 1.40 64
3 12/31/2024 23:41:37 -81.03, 42.12 74.33 12/31/2024 23:40:46 -81.02, 41.99 74.37 2.65 51
4 01/01/2025 00:32:08 81.04,-150.60 105.67 01/01/2025 00:31:26 81.03,-150.43 105.66 3.10 42
5 01/01/2025 01:22:36 -81.03, 16.82 74.34 01/01/2025 01:22:07 -81.03, 16.85 74.36 1.04 29
6 01/01/2025 02:13:06 81.02,-175.55 105.67 01/01/2025 02:12:47 81.04,-175.57 105.68 1.81 19
7 01/01/2025 03:03:35 -81.04, -8.49 74.35 01/01/2025 03:03:28 -81.03, -8.30 74.34 3.35 7
8 01/01/2025 03:54:06 81.04, 158.77 105.65 01/01/2025 03:54:09 81.03, 158.91 105.65 2.80 3
9 01/01/2025 04:44:34 -81.04, -33.80 74.36 01/01/2025 04:44:50 -81.03, -33.81 74.37 1.48 16
10 01/01/2025 05:35:04 81.03, 133.83 105.65 01/01/2025 05:35:30 81.04, 133.77 105.67 1.54 26
11 01/01/2025 06:25:33 -81.04, -59.10 74.37 01/01/2025 06:26:11 -81.04, -58.96 74.35 2.67 38
12 01/01/2025 07:16:03 81.03, 108.52 105.64 01/01/2025 07:16:51 81.05, 108.62 105.68 2.44 48
13 01/01/2025 08:06:31 -81.03, -84.04 74.36 01/01/2025 08:07:32 -81.04, -84.10 74.33 1.97 61



Historial Predications of SNOs between NOAA-15 and METOP-C
